SCP
-0 -0 -0 -0 -0 -0 -0 -0 -0 -0 -0 -0 -0 -0 -0 -0 -0 -0 -0 -0 -0 -0 -0 -0 -0 -0 -0 -0 0 0 -0 -0 -0 0 0 -0 0 0 0 0 0 -0 0 -0 -0 -0 0
-0 -0 -0 -0 -0 -0 -0 -0 -0 -0 -0 -0 -0 -0 -0 -0 -0 -0 -0 -0 -0 -0 -0 -0 0 0 0 -0 -0 -0 -0 -0 0 -0 0 0 0 0 0 0 -0 -0 -0 -0 -0 -0 -0
-0 -0 -0 -0 -0 -0 -0 -0 -0 -0 -0 -0 -0 -0 -0 -0 -0 -0 -0 -0 -0 -0 -0 0 0 -0 0 -0 0 0 -0 0 0 0 0 -0 -0 0 0 -0 0 -0 0 0 0 0 0
-0 -0 -0 -0 -0 -0 -0 -0 -0 -0 -0 -0 -0 -0 -0 -0 -0 -0 -0 -0 -0 -0 -0 0 -0 0 0 0 0 0 -0 0 0 -0 -0 -0 -0 -0 -0 0 0 -0 0 0 0 0 0
0 0 -0 -0 -0 -0 -0 -0 -0 -0 -0 -0 -0 -0 -0 -0 -0 -0 -0 -0 -0 0 0 0 0 0 0 0 0 0 0 -0 -0 0 0 0 0 0 0 0 -0 -0 -0 0 0 -0 0
0 0 0 -0 -0 -0 -0 -0 -0 -0 -0 -0 -0 -0 -0 -0 -0 -0 -0 -0 -0 0 0 0 0 0 0 0 0 0 0 0 0 0 0 0 0 0 -0 0 -0 -0 -0 0 0 -0 -0
0 0 0 0 -0 -0 -0 -0 -0 -0 -0 -0 -0 -0 -0 -0 -0 -0 -0 0 0 0 0 0 0 0 0 0 0 0 0 0 0 0 -0 0 -0 -0 0 -0 -0 0 -0 -0 -0 -0 0
-0 -0 0 -0 -0 -0 -0 -0 -0 -0 -0 -0 -0 -0 -0 -0 -0 -0 0 0 0 -0 -0 0 0 0 0 0 0 -0 0 0 0 0 0 0 -0 -0 -0 -0 -0 0 -0 0 -0 -0 0
0 0 0 -0 -0 -0 -0 -0 -0 -0 -0 -0 -0 -0 -0 -0 -0 0 0 0 0 0 0 0 0 0 -0 0 0 -0 0 0 0 0 0 0 0 -0 0 0 -0 0 -0 -0 0 -0 -0
0 0 0 -0 -0 -0 -0 -0 -0 -0 -0 -0 -0 -0 -0 -0 0 -0 -0 -0 -0 -0 -0 0 0 0 -0 0 0 0 0 0 0 0 0 0 0 0 0 0 -0 -0 0 0 -0 0 0
0 0 0 -0 -0 -0 -0 -0 -0 -0 -0 -0 -0 -0 -0 -0 0 0 0 -0 -0 0 0 -0 -0 0 0 0 0 0 0 0 0 0 0 0 0 0 0 -0 -0 -0 -0 -0 0 -0 -0
0 0 0 0 -0 -0 -0 -0 -0 -0 -0 -0 -0 -0 -0 0 0 -0 -0 -0 0 -0 -0 -0 0 -0 -0 -0 -0 0 0 0 0 0 0 0 -0 -0 -0 0 0 -0 0 0 0 0 0
-0 0 0 0 -0 -0 -0 -0 -0 -0 -0 -0 -0 -0 0 0 0 0 0 0 0 0 0 -0 0 -0 0 -0 0 0 0 -0 0 0 0 0 0 -0 -0 0 0 0 0 0 0 0 0
-0 -0 -0 0 -0 -0 -0 -0 -0 -0 -0 -0 -0 -0 0 0 0 0 0 0 0 -0 0 0 0 0 0 -0 -0 -0 0 0 0 0 0 0 0 0 0 0 0 0 0 0 0 0 0
0 -0 -0 0 0 0 0 -0 -0 -0 -0 -0 -0 0 0 0 0 0 0 0 0 -0 0 0 0 0 -0 0 0 0 0 -0 -0 0 0 0 -0 0 0 0 0 0 0 0 0 0 0
0 0 0 0 0 0 0 0 -0 -0 -0 -0 0 0 0 -0 0 0 0 0 0 0 -0 0 0 0 -0 0 0 -0 0 0 -0 -0 0 0 -0 0 0 0 0 0 0 0 0 0 0
0 0 0 0 0 0 0 0 0 0 -0 -0 0 0 -0 -0 0 0 0 0 0 0 0 0 0 0 -0 -0 0 0 0 0 -0 -0 -0 -0 0 0 0 0 0 0 0 0 0 0 0
0 0 0 0 0 0 0 0 0 0 0 0 0 0 -0 0 0 0 0 0 0 0 0 0 0 0 -0 -0 -0 -0 0 0 0 0 0 -0 0 0 0 0 0 0 -0 0 0 0 0
0 0 0 0 0 0 0 0 0 0 0 0 0 0 0 0 0 0 0 0 0 0 0 0 0 0 0 -0 -0 0 0 0 0 0 -0 0 0 0 0 0 0 0 0 0 0 0 0
0 0 0 0 0 0 0 0 0 0 0 0 0 0 0 0 0 0 0 0 0 0 0 0 0 0 0 0 0 -0 0 0 0 0 0 0 0 0 0 0 0 0 0 0 0 0 0
0 0 0 0 0 0 0 0 0 -0 -0 0 0 0 0 0 0 0 0 0 0 0 0 0 0 0 0 0 0 0 -0 -0 0 0 0 0 0 0 0 0 -0 -0 0 0 0 0 0
0 0 0 0 0 0 0 0 0 0 0 0 0 0 0 0 0 0 0 0 0 0 0 0 0 0 0 0 0 0 0 0 0 0 0 0 0 0 0 0 0 0 0 0 0 0 0
0 0 0 0 0 0 0 0 0 0 0 0 0 0 0 0 0 0 0 0 0 0 0 0 0 0 0 0 0 0 0 0 0 0 0 0 0 0 0 0 0 0 0 0 0 0 0
0 0 0 0 0 0 0 0 0 0 0 0 0 0 0 0 0 0 0 0 0 0 0 0 0 0 0 0 0 0 0 -0 -0 0 0 0 0 0 0 0 0 -0 0 0 0 0 0
0 0 0 0 -0 0 0 0 0 0 0 0 0 0 0 0 0 0 0 0 0 0 0 0 0 0 0 0 -0 -0 -0 -0 -0 -0 0 0 0 0 0 0 0 0 0 0 -0 0 0
0 0 0 0 -0 -0 0 0 0 0 0 0 0 0 0 0 0 0 0 0 0 0 0 0 0 0 0 0 0 0 -0 0 -0 0 0 -0 0 0 0 0 0 0 0 0 -0 0 0
0 0 0 0 -0 -0 -0 0 0 0 0 0 0 0 0 0 0 0 0 0 0 0 0 0 0 0 0 0 0 0 0 0 0 0 0 0 0 0 0 0 0 0 0 0 0 0 0
0 0 0 0 -0 -0 0 0 0 0 0 0 0 0 0 0 0 0 0 0 0 0 0 0 0 0 0 0 0 0 0 0 0 0 0 0 0 0 0 0 0 0 0 0 0 1 0
0 0 0 0 0 0 0 0 0 0 0 0 0 0 0 0 0 0 0 0 0 0 0 0 0 0 0 0 0 0 0 0 0 0 0 0 0 0 0 0 0 0 0 0 0 0 1
Wind_Speed_500mb
36 37 38 39 39 41 43 44 44 44 45 45 45 44 44 44 41 36 34 29 25 22 21 20 19 17 15 12 26 9 3 24 29 32 28 19 16 15 6 7 25 25 16 33 36 39 40
36 37 39 40 42 43 44 45 46 46 47 47 47 47 47 46 45 40 34 29 25 23 20 18 17 17 12 9 18 18 15 19 29 34 30 23 10 19 18 9 9 20 37 35 40 29 34
36 38 40 42 43 45 46 47 47 47 48 48 48 48 48 48 47 44 35 28 26 21 19 17 16 17 22 35 19 14 14 23 19 35 31 25 21 27 14 8 16 39 14 10 17 30 14
37 39 42 44 46 48 49 49 50 50 50 50 50 49 49 49 49 46 34 27 23 19 18 16 16 18 19 8 19 28 20 16 19 18 32 23 20 36 4 7 12 10 10 8 2 15 8
39 41 44 47 51 54 55 53 53 53 52 51 51 50 48 48 49 46 30 23 17 16 15 13 13 10 23 18 37 38 28 29 19 21 18 19 25 12 11 11 6 9 10 7 6 25 8
41 45 48 52 54 57 58 56 55 54 52 51 52 50 48 45 47 41 21 17 11 12 12 13 18 12 29 18 31 38 39 31 32 26 28 23 11 7 7 7 8 11 10 9 6 16 28
43 47 52 54 56 58 57 56 54 54 53 52 52 50 47 42 42 27 20 10 13 5 18 22 17 28 35 19 7 32 42 37 41 25 13 19 3 11 22 17 8 10 10 8 7 15 11
45 50 52 53 57 60 56 55 53 54 54 53 51 49 45 37 28 16 19 18 17 26 25 38 47 52 62 55 23 25 33 30 21 15 4 2 17 17 17 21 13 12 11 8 7 19 16
47 50 51 54 59 62 58 57 56 55 55 53 50 48 45 34 15 7 17 22 18 26 9 28 41 44 62 20 27 44 37 38 11 10 11 17 28 14 16 12 20 13 23 12 7 16 20
47 49 52 53 58 62 61 58 58 57 56 53 49 46 45 35 4 20 6 14 9 20 8 15 10 14 40 36 12 33 26 32 6 17 11 15 28 16 9 14 17 13 22 30 18 7 7
46 50 52 52 56 61 62 60 59 58 56 53 48 43 41 37 30 16 11 17 7 7 7 6 8 7 11 27 6 25 37 28 18 17 14 24 12 14 11 28 24 29 42 45 30 21 11
47 50 50 50 53 59 62 60 59 56 54 53 48 40 45 32 25 5 12 2 3 11 8 7 10 11 12 17 25 8 22 35 45 11 4 20 27 11 17 15 19 36 28 22 8 9 5
45 50 50 49 51 57 60 58 60 56 54 53 46 39 40 29 12 7 15 6 9 7 13 17 1 6 9 13 9 12 8 7 13 8 9 15 21 12 12 12 4 12 25 7 4 3 14
41 48 46 47 49 54 58 59 63 60 56 56 46 36 30 19 5 7 5 9 4 7 6 8 18 5 14 13 14 17 10 11 10 9 9 12 20 9 10 16 18 11 21 12 13 14 10
40 44 46 47 50 55 58 61 62 60 55 58 42 26 13 14 13 11 6 6 13 8 7 18 22 7 8 9 3 7 17 20 23 20 19 13 21 11 8 13 18 17 5 16 13 9 7
38 43 46 46 48 53 57 57 62 62 54 50 37 18 21 18 16 12 10 9 8 6 14 6 0 8 3 6 11 6 9 14 16 25 16 19 11 12 27 5 5 16 9 1 6 6 7
39 42 44 44 48 51 54 57 60 65 55 49 17 7 15 11 14 2 4 12 11 28 25 9 18 12 9 5 5 3 7 19 19 18 22 13 11 33 4 12 21 2 5 7 11 11 12
38 43 46 45 48 49 53 55 55 64 61 53 16 4 16 17 1 3 3 8 12 30 46 11 13 16 4 5 3 5 10 10 32 9 17 27 15 17 28 19 16 19 32 16 11 12 7
39 42 44 45 47 50 51 51 48 54 59 63 28 15 16 8 6 8 16 12 10 20 13 15 12 8 2 6 7 8 13 25 34 9 13 12 10 19 23 13 7 9 11 13 11 8 12
38 39 40 44 47 49 49 50 44 43 43 35 14 9 14 19 15 7 12 11 16 33 12 13 9 12 16 17 9 9 26 14 49 26 69 10 11 18 24 18 7 8 8 10 15 9 10
35 37 40 41 44 48 48 47 43 37 28 23 18 7 13 9 11 13 7 7 20 21 31 33 11 25 10 14 14 15 13 17 35 37 34 12 10 12 17 12 9 6 17 17 15 17 14
33 36 37 39 43 45 46 47 48 39 27 16 11 14 19 21 26 15 11 11 19 40 10 17 14 20 16 12 2 14 11 8 12 19 20 16 12 11 7 9 1 7 15 19 28 12 7
30 34 38 41 41 42 42 44 46 44 36 16 16 12 6 12 13 8 4 14 21 29 13 31 20 12 12 17 33 42 39 34 23 7 11 5 8 14 11 6 10 9 15 11 11 11 18
32 36 41 44 42 39 38 39 40 41 35 26 26 14 8 8 5 7 20 27 23 27 14 29 32 13 35 55 45 25 23 26 26 25 20 11 5 5 9 8 9 18 8 16 17 14 16
32 36 42 47 45 39 34 32 33 32 30 19 17 14 9 7 18 17 33 15 28 38 19 18 27 45 51 22 10 14 12 12 14 20 12 10 8 4 1 3 11 16 9 10 9 20 7
31 36 40 47 46 39 34 28 28 30 28 20 7 7 6 7 3 16 15 24 8 15 14 12 49 34 37 4 6 7 5 6 11 15 11 13 13 9 5 3 8 14 11 26 4 6 12
32 36 39 45 46 39 32 28 26 28 27 23 5 8 6 12 19 13 8 14 18 16 7 14 39 30 31 8 2 7 9 6 6 7 7 8 3 6 6 8 14 16 18 26 12 12 17
33 36 37 42 47 40 32 29 25 22 25 26 18 3 11 17 46 42 8 17 30 18 3 26 23 15 12 12 7 7 2 6 5 8 6 6 5 7 5 3 14 12 9 10 12 8 12
34 37 37 40 47 40 27 24 23 22 21 28 28 14 22 25 35 34 47 55 55 51 44 15 14 14 10 7 8 6 5 7 8 6 11 3 5 7 14 12 11 22 10 17 14 29 9
Wind_Direction_500mb
30 28 25 19 15 11 9 6 4 1 359 356 354 351 347 342 337 327 318 310 304 302 298 298 299 300 294 269 239 146 217 203 212 224 229 224 239 250 283 6 12 122 129 135 146 135 152
26 21 19 14 10 7 4 0 357 355 354 352 351 350 347 343 338 330 317 307 297 292 289 290 291 294 269 246 229 237 226 211 219 234 237 235 250 322 273 212 116 153 134 142 149 161 167
19 15 11 7 4 0 357 353 350 348 348 348 347 346 344 342 338 331 320 305 290 283 280 278 281 284 263 248 183 202 241 237 244 243 243 256 270 284 300 43 343 155 129 132 156 172 165
11 8 4 1 359 355 350 347 344 343 344 343 343 343 342 341 337 331 325 301 285 274 268 269 272 282 262 145 207 208 214 222 234 261 249 261 277 292 190 86 41 57 50 112 292 173 188
3 1 357 354 353 350 346 343 341 340 339 339 339 339 340 340 336 332 328 303 291 272 265 261 268 273 263 211 215 205 215 227 242 257 260 258 292 236 65 94 33 25 131 87 60 35 69
355 355 353 350 348 346 346 343 340 339 337 335 335 335 338 340 337 335 343 331 316 275 256 254 241 290 247 249 219 215 212 225 233 244 251 258 271 84 41 77 198 205 129 156 125 7 53
348 348 347 347 345 343 342 342 340 339 337 335 333 333 335 341 340 344 25 48 11 35 316 255 248 237 269 300 261 231 222 222 230 249 193 240 104 216 208 207 181 157 121 110 158 101 83
343 343 344 345 344 344 341 339 338 337 336 336 333 331 333 342 342 7 24 26 20 321 293 275 260 259 257 275 294 234 204 198 206 221 205 353 238 216 198 204 178 152 130 163 299 142 96
336 339 341 342 342 345 340 338 337 335 334 335 333 331 330 341 333 350 3 23 1 353 297 289 245 232 242 240 240 252 184 204 187 189 197 194 237 168 221 247 153 221 175 150 101 62 65
332 334 337 338 339 341 339 337 336 334 333 333 331 330 331 336 336 325 143 350 314 348 41 276 216 228 221 226 287 233 201 204 158 203 213 229 255 228 179 179 152 216 186 148 107 72 195
330 332 336 335 336 339 341 339 336 334 333 330 327 329 323 322 311 315 292 292 282 352 3 168 187 187 198 174 186 227 218 216 194 208 111 252 238 235 168 215 185 231 168 173 171 179 107
333 334 337 336 336 339 340 339 336 334 333 328 325 329 312 314 303 269 340 360 357 49 271 323 153 170 107 208 240 251 199 223 223 191 163 240 266 165 228 228 194 242 164 172 78 54 355
337 335 336 338 339 339 340 339 337 336 335 327 325 324 304 299 296 269 330 353 47 148 307 331 306 208 168 192 233 161 223 181 174 145 287 292 279 276 222 267 327 126 127 113 253 29 236
332 333 335 337 339 340 342 340 338 338 339 328 329 322 300 294 224 198 203 60 157 266 296 327 356 22 179 168 228 189 182 209 239 130 136 206 294 221 238 183 216 180 165 154 193 169 214
338 334 334 339 342 345 345 343 338 339 343 332 338 339 332 131 105 162 111 89 208 230 15 349 331 125 297 311 323 129 186 194 199 168 170 174 256 301 237 240 146 257 132 187 126 94 105
336 337 338 344 347 348 348 347 343 342 350 341 346 18 94 111 102 126 74 234 254 312 335 31 62 298 8 345 5 49 219 223 215 190 167 215 276 219 266 10 264 164 182 192 359 145 229
337 343 349 354 353 352 352 350 346 344 356 354 7 34 117 105 140 131 148 240 296 289 309 313 290 253 253 62 285 250 243 304 221 227 163 153 144 266 137 190 233 134 180 77 123 139 164
350 351 357 358 357 356 356 355 352 348 356 10 15 35 142 178 193 33 181 230 283 296 319 289 215 217 147 62 342 313 253 223 320 229 166 202 169 232 238 252 219 177 199 149 133 250 203
353 357 360 360 360 357 358 358 358 355 356 357 346 319 41 230 64 347 316 299 320 4 325 10 332 11 355 64 23 313 329 317 346 272 216 189 221 240 281 342 18 195 189 159 117 77 204
353 356 359 359 2 1 1 1 3 1 359 2 7 2 346 48 91 32 344 301 330 317 293 348 272 343 15 4 22 354 349 326 333 357 7 256 155 171 226 215 172 334 232 171 141 126 206
353 355 358 0 2 3 1 1 5 6 3 17 21 25 13 326 335 334 309 277 333 360 344 350 2 9 340 32 11 359 343 321 331 12 358 28 202 164 214 189 170 197 253 230 168 200 162
357 358 0 2 360 0 1 359 360 7 6 31 33 8 350 308 318 349 353 356 351 341 332 340 5 349 38 102 68 309 329 341 276 334 349 344 322 355 257 171 317 300 294 265 227 185 212
5 5 3 359 357 358 1 1 0 5 12 42 34 350 334 302 333 11 12 342 343 354 297 352 335 335 7 1 323 299 287 278 258 230 319 296 19 5 282 19 29 339 258 267 214 189 180
10 9 6 0 354 353 355 359 1 4 15 25 26 15 351 284 348 358 324 340 335 333 286 326 15 25 323 329 327 314 264 265 267 272 187 255 331 142 261 43 248 244 266 248 228 222 190
8 5 3 1 357 352 350 352 355 359 6 14 28 30 349 306 320 317 347 319 331 352 349 300 353 336 333 321 14 2 339 358 294 246 243 186 128 313 248 208 274 307 353 358 324 275 254
358 356 357 359 357 351 348 345 347 349 352 7 358 28 346 325 190 11 321 356 352 339 332 313 336 343 355 75 85 192 220 347 305 320 61 76 66 128 27 79 237 233 294 323 114 271 329
347 348 349 353 352 349 348 346 344 338 337 348 34 1 331 274 284 350 332 306 314 346 286 328 340 332 8 6 100 180 240 248 251 282 3 335 8 171 192 228 282 253 303 320 72 244 344
334 337 341 346 348 340 335 340 339 333 328 328 347 210 330 270 288 297 255 313 313 315 331 318 342 352 345 34 22 320 304 254 266 219 219 235 193 206 141 141 272 245 315 96 222 87 99
331 335 337 339 344 343 337 333 331 326 321 315 316 301 277 279 267 281 279 281 281 278 261 273 282 314 283 35 15 329 328 325 333 292 337 205 286 261 179 214 262 300 246 146 156 117 114
Wind_Speed_850mb
36 37 38 39 39 41 43 44 44 44 45 45 45 44 44 44 41 36 34 29 25 22 21 20 19 17 15 12 26 9 3 24 29 32 28 19 16 15 6 7 25 25 16 33 36 39 40
36 37 39 40 42 43 44 45 46 46 47 47 47 47 47 46 45 40 34 29 25 23 20 18 17 17 12 9 18 18 15 19 29 34 30 23 10 19 18 9 9 20 37 35 40 29 34
36 38 40 42 43 45 46 47 47 47 48 48 48 48 48 48 47 44 35 28 26 21 19 17 16 17 22 35 19 14 14 23 19 35 31 25 21 27 14 8 16 39 14 10 17 30 14
37 39 42 44 46 48 49 49 50 50 50 50 50 49 49 49 49 46 34 27 23 19 18 16 16 18 19 8 19 28 20 16 19 18 32 23 20 36 4 7 12 10 10 8 2 15 8
39 41 44 47 51 54 55 53 53 53 52 51 51 50 48 48 49 46 30 23 17 16 15 13 13 10 23 18 37 38 28 29 19 21 18 19 25 12 11 11 6 9 10 7 6 25 8
41 45 48 52 54 57 58 56 55 54 52 51 52 50 48 45 47 41 21 17 11 12 12 13 18 12 29 18 31 38 39 31 32 26 28 23 11 7 7 7 8 11 10 9 6 16 28
43 47 52 54 56 58 57 56 54 54 53 52 52 50 47 42 42 27 20 10 13 5 18 22 17 28 35 19 7 32 42 37 41 25 13 19 3 11 22 17 8 10 10 8 7 15 11
45 50 52 53 57 60 56 55 53 54 54 53 51 49 45 37 28 16 19 18 17 26 25 38 47 52 62 55 23 25 33 30 21 15 4 2 17 17 17 21 13 12 11 8 7 19 16
47 50 51 54 59 62 58 57 56 55 55 53 50 48 45 34 15 7 17 22 18 26 9 28 41 44 62 20 27 44 37 38 11 10 11 17 28 14 16 12 20 13 23 12 7 16 20
47 49 52 53 58 62 61 58 58 57 56 53 49 46 45 35 4 20 6 14 9 20 8 15 10 14 40 36 12 33 26 32 6 17 11 15 28 16 9 14 17 13 22 30 18 7 7
46 50 52 52 56 61 62 60 59 58 56 53 48 43 41 37 30 16 11 17 7 7 7 6 8 7 11 27 6 25 37 28 18 17 14 24 12 14 11 28 24 29 42 45 30 21 11
47 50 50 50 53 59 62 60 59 56 54 53 48 40 45 32 25 5 12 2 3 11 8 7 10 11 12 17 25 8 22 35 45 11 4 20 27 11 17 15 19 36 28 22 8 9 5
45 50 50 49 51 57 60 58 60 56 54 53 46 39 40 29 12 7 15 6 9 7 13 17 1 6 9 13 9 12 8 7 13 8 9 15 21 12 12 12 4 12 25 7 4 3 14
41 48 46 47 49 54 58 59 63 60 56 56 46 36 30 19 5 7 5 9 4 7 6 8 18 5 14 13 14 17 10 11 10 9 9 12 20 9 10 16 18 11 21 12 13 14 10
40 44 46 47 50 55 58 61 62 60 55 58 42 26 13 14 13 11 6 6 13 8 7 18 22 7 8 9 3 7 17 20 23 20 19 13 21 11 8 13 18 17 5 16 13 9 7
38 43 46 46 48 53 57 57 62 62 54 50 37 18 21 18 16 12 10 9 8 6 14 6 0 8 3 6 11 6 9 14 16 25 16 19 11 12 27 5 5 16 9 1 6 6 7
39 42 44 44 48 51 54 57 60 65 55 49 17 7 15 11 14 2 4 12 11 28 25 9 18 12 9 5 5 3 7 19 19 18 22 13 11 33 4 12 21 2 5 7 11 11 12
38 43 46 45 48 49 53 55 55 64 61 53 16 4 16 17 1 3 3 8 12 30 46 11 13 16 4 5 3 5 10 10 32 9 17 27 15 17 28 19 16 19 32 16 11 12 7
39 42 44 45 47 50 51 51 48 54 59 63 28 15 16 8 6 8 16 12 10 20 13 15 12 8 2 6 7 8 13 25 34 9 13 12 10 19 23 13 7 9 11 13 11 8 12
38 39 40 44 47 49 49 50 44 43 43 35 14 9 14 19 15 7 12 11 16 33 12 13 9 12 16 17 9 9 26 14 49 26 69 10 11 18 24 18 7 8 8 10 15 9 10
35 37 40 41 44 48 48 47 43 37 28 23 18 7 13 9 11 13 7 7 20 21 31 33 11 25 10 14 14 15 13 17 35 37 34 12 10 12 17 12 9 6 17 17 15 17 14
33 36 37 39 43 45 46 47 48 39 27 16 11 14 19 21 26 15 11 11 19 40 10 17 14 20 16 12 2 14 11 8 12 19 20 16 12 11 7 9 1 7 15 19 28 12 7
30 34 38 41 41 42 42 44 46 44 36 16 16 12 6 12 13 8 4 14 21 29 13 31 20 12 12 17 33 42 39 34 23 7 11 5 8 14 11 6 10 9 15 11 11 11 18
32 36 41 44 42 39 38 39 40 41 35 26 26 14 8 8 5 7 20 27 23 27 14 29 32 13 35 55 45 25 23 26 26 25 20 11 5 5 9 8 9 18 8 16 17 14 16
32 36 42 47 45 39 34 32 33 32 30 19 17 14 9 7 18 17 33 15 28 38 19 18 27 45 51 22 10 14 12 12 14 20 12 10 8 4 1 3 11 16 9 10 9 20 7
31 36 40 47 46 39 34 28 28 30 28 20 7 7 6 7 3 16 15 24 8 15 14 12 49 34 37 4 6 7 5 6 11 15 11 13 13 9 5 3 8 14 11 26 4 6 12
32 36 39 45 46 39 32 28 26 28 27 23 5 8 6 12 19 13 8 14 18 16 7 14 39 30 31 8 2 7 9 6 6 7 7 8 3 6 6 8 14 16 18 26 12 12 17
33 36 37 42 47 40 32 29 25 22 25 26 18 3 11 17 46 42 8 17 30 18 3 26 23 15 12 12 7 7 2 6 5 8 6 6 5 7 5 3 14 12 9 10 12 8 12
34 37 37 40 47 40 27 24 23 22 21 28 28 14 22 25 35 34 47 55 55 51 44 15 14 14 10 7 8 6 5 7 8 6 11 3 5 7 14 12 11 22 10 17 14 29 9
Wind_Direction_850mb
30 28 25 19 15 11 9 6 4 1 359 356 354 351 347 342 337 327 318 310 304 302 298 298 299 300 294 269 239 146 217 203 212 224 229 224 239 250 283 6 12 122 129 135 146 135 152
26 21 19 14 10 7 4 0 357 355 354 352 351 350 347 343 338 330 317 307 297 292 289 290 291 294 269 246 229 237 226 211 219 234 237 235 250 322 273 212 116 153 134 142 149 161 167
19 15 11 7 4 0 357 353 350 348 348 348 347 346 344 342 338 331 320 305 290 283 280 278 281 284 263 248 183 202 241 237 244 243 243 256 270 284 300 43 343 155 129 132 156 172 165
11 8 4 1 359 355 350 347 344 343 344 343 343 343 342 341 337 331 325 301 285 274 268 269 272 282 262 145 207 208 214 222 234 261 249 261 277 292 190 86 41 57 50 112 292 173 188
3 1 357 354 353 350 346 343 341 340 339 339 339 339 340 340 336 332 328 303 291 272 265 261 268 273 263 211 215 205 215 227 242 257 260 258 292 236 65 94 33 25 131 87 60 35 69
355 355 353 350 348 346 346 343 340 339 337 335 335 335 338 340 337 335 343 331 316 275 256 254 241 290 247 249 219 215 212 225 233 244 251 258 271 84 41 77 198 205 129 156 125 7 53
348 348 347 347 345 343 342 342 340 339 337 335 333 333 335 341 340 344 25 48 11 35 316 255 248 237 269 300 261 231 222 222 230 249 193 240 104 216 208 207 181 157 121 110 158 101 83
343 343 344 345 344 344 341 339 338 337 336 336 333 331 333 342 342 7 24 26 20 321 293 275 260 259 257 275 294 234 204 198 206 221 205 353 238 216 198 204 178 152 130 163 299 142 96
336 339 341 342 342 345 340 338 337 335 334 335 333 331 330 341 333 350 3 23 1 353 297 289 245 232 242 240 240 252 184 204 187 189 197 194 237 168 221 247 153 221 175 150 101 62 65
332 334 337 338 339 341 339 337 336 334 333 333 331 330 331 336 336 325 143 350 314 348 41 276 216 228 221 226 287 233 201 204 158 203 213 229 255 228 179 179 152 216 186 148 107 72 195
330 332 336 335 336 339 341 339 336 334 333 330 327 329 323 322 311 315 292 292 282 352 3 168 187 187 198 174 186 227 218 216 194 208 111 252 238 235 168 215 185 231 168 173 171 179 107
333 334 337 336 336 339 340 339 336 334 333 328 325 329 312 314 303 269 340 360 357 49 271 323 153 170 107 208 240 251 199 223 223 191 163 240 266 165 228 228 194 242 164 172 78 54 355
337 335 336 338 339 339 340 339 337 336 335 327 325 324 304 299 296 269 330 353 47 148 307 331 306 208 168 192 233 161 223 181 174 145 287 292 279 276 222 267 327 126 127 113 253 29 236
332 333 335 337 339 340 342 340 338 338 339 328 329 322 300 294 224 198 203 60 157 266 296 327 356 22 179 168 228 189 182 209 239 130 136 206 294 221 238 183 216 180 165 154 193 169 214
338 334 334 339 342 345 345 343 338 339 343 332 338 339 332 131 105 162 111 89 208 230 15 349 331 125 297 311 323 129 186 194 199 168 170 174 256 301 237 240 146 257 132 187 126 94 105
336 337 338 344 347 348 348 347 343 342 350 341 346 18 94 111 102 126 74 234 254 312 335 31 62 298 8 345 5 49 219 223 215 190 167 215 276 219 266 10 264 164 182 192 359 145 229
337 343 349 354 353 352 352 350 346 344 356 354 7 34 117 105 140 131 148 240 296 289 309 313 290 253 253 62 285 250 243 304 221 227 163 153 144 266 137 190 233 134 180 77 123 139 164
350 351 357 358 357 356 356 355 352 348 356 10 15 35 142 178 193 33 181 230 283 296 319 289 215 217 147 62 342 313 253 223 320 229 166 202 169 232 238 252 219 177 199 149 133 250 203
353 357 360 360 360 357 358 358 358 355 356 357 346 319 41 230 64 347 316 299 320 4 325 10 332 11 355 64 23 313 329 317 346 272 216 189 221 240 281 342 18 195 189 159 117 77 204
353 356 359 359 2 1 1 1 3 1 359 2 7 2 346 48 91 32 344 301 330 317 293 348 272 343 15 4 22 354 349 326 333 357 7 256 155 171 226 215 172 334 232 171 141 126 206
353 355 358 0 2 3 1 1 5 6 3 17 21 25 13 326 335 334 309 277 333 360 344 350 2 9 340 32 11 359 343 321 331 12 358 28 202 164 214 189 170 197 253 230 168 200 162
357 358 0 2 360 0 1 359 360 7 6 31 33 8 350 308 318 349 353 356 351 341 332 340 5 349 38 102 68 309 329 341 276 334 349 344 322 355 257 171 317 300 294 265 227 185 212
5 5 3 359 357 358 1 1 0 5 12 42 34 350 334 302 333 11 12 342 343 354 297 352 335 335 7 1 323 299 287 278 258 230 319 296 19 5 282 19 29 339 258 267 214 189 180
10 9 6 0 354 353 355 359 1 4 15 25 26 15 351 284 348 358 324 340 335 333 286 326 15 25 323 329 327 314 264 265 267 272 187 255 331 142 261 43 248 244 266 248 228 222 190
8 5 3 1 357 352 350 352 355 359 6 14 28 30 349 306 320 317 347 319 331 352 349 300 353 336 333 321 14 2 339 358 294 246 243 186 128 313 248 208 274 307 353 358 324 275 254
358 356 357 359 357 351 348 345 347 349 352 7 358 28 346 325 190 11 321 356 352 339 332 313 336 343 355 75 85 192 220 347 305 320 61 76 66 128 27 79 237 233 294 323 114 271 329
347 348 349 353 352 349 348 346 344 338 337 348 34 1 331 274 284 350 332 306 314 346 286 328 340 332 8 6 100 180 240 248 251 282 3 335 8 171 192 228 282 253 303 320 72 244 344
334 337 341 346 348 340 335 340 339 333 328 328 347 210 330 270 288 297 255 313 313 315 331 318 342 352 345 34 22 320 304 254 266 219 219 235 193 206 141 141 272 245 315 96 222 87 99
331 335 337 339 344 343 337 333 331 326 321 315 316 301 277 279 267 281 279 281 281 278 261 273 282 314 283 35 15 329 328 325 333 292 337 205 286 261 179 214 262 300 246 146 156 117 114